STARLINK-11461 [DTC]

Last updated on Thu Jan 23 2025 00:02:04 GMT+0000 (Coordinated Universal Time)

1 62421U 24249N 25022.45146770 .00007886 00000+0 48101-4 0 9997 2 62421 42.9990 127.3587 0001452 253.0450 107.0261 15.77873536 4793
UTC large
Height (km)
Speed (km/s)
/
Latitude / Longitude
Inclination (degrees)
Orbital Period (minutes)
Azimuth
Elevation
Range (km)
Doppler Factor

Next 0 passes for location: London (51.5072 / 0.1276)

Sorry there are no passes over London.